Weather History for KLWA - May, 2013

Change the Weather History Date:

Tuesday, May 14, 2013

  Actual Average (KBIV) Record (KBIV)
Temperature  
Mean Temperature 61 °F 58 °F  
Max Temperature 75 °F 68 °F - ()
Min Temperature 49 °F 48 °F - ()
Degree Days  
Heating Degree Days 4 8  
Month to date heating degree days 134  
Since 1 July heating degree days 6013  
Cooling Degree Days 0 1  
Month to date cooling degree days 8  
Year to date cooling degree days 12  
Growing Degree Days 11 (Base 50)    
Moisture  
Dew Point 41 °F    
Average Humidity 44    
Maximum Humidity 64    
Minimum Humidity 34    
Precipitation  
Precipitation 0.00 in 0.11 in - ()
Month to date precipitation 1.55  
Year to date precipitation 10.96  
Sea Level Pressure  
Sea Level Pressure 29.83 in    
Wind  
Wind Speed 7 mph (South)    
Max Wind Speed 18 mph    
Max Gust Speed 28 mph    
Visibility 10 miles    
Events Rain    
T = Trace of Precipitation, MM = Missing Value Source: NWS Daily Summary

Daily Weather History Graph

Daily Weather History Graph

Search for Another Location

Airport or City:

Trip Planner

Search our weather history database for the weather conditions in past years. The results will help you decide how hot, cold, wet, or windy it might be!

Date:

Astronomy

May. 14, 2013 Rise Set
Actual Time 6:24 AM EDT 8:58 PM EDT
Civil Twilight 5:52 AM EDT 9:31 PM EDT
Nautical Twilight 5:12 AM EDT 10:11 PM EDT
Astronomical Twilight 4:27 AM EDT 10:57 PM EDT
Moon 10:03 AM EDT (5/14) 12:06 AM EDT (5/14)
Length of Visible Light 15h 38m
Length of Day
14h 34m
Waxing Crescent, 19% of the Moon is Illuminated
May 14
Waxing Crescent
May 18
First Quarter
May 25
Full
May 31
Last Quarter
Jun 8
New

Hourly Weather History & Observations

Time (EDT) Temp. Dew Point Humidity Pressure Visibility Wind Dir Wind Speed Gust Speed Precip Events Conditions
12:15 AM 49.1 °F 26.4 °F 41% 30.07 in 10.0 mi Calm Calm - N/A   Overcast
12:35 AM 49.1 °F 25.9 °F 40% 30.07 in 10.0 mi Calm Calm - N/A   Overcast
12:55 AM 49.1 °F 28.2 °F 44% 30.06 in 10.0 mi South 3.5 mph - N/A   Overcast
1:15 AM 49.1 °F 26.4 °F 41% 30.04 in 10.0 mi SE 5.8 mph - N/A   Light Drizzle
1:36 AM 49.6 °F 24.8 °F 38% 30.03 in 10.0 mi SSE 4.6 mph - N/A   Overcast
1:55 AM 49.6 °F 25.3 °F 39% 30.02 in 10.0 mi SSE 5.8 mph - N/A   Overcast
2:15 AM 50.0 °F 24.3 °F 37% 30.01 in 10.0 mi SSE 4.6 mph - N/A   Overcast
2:35 AM 50.4 °F 24.4 °F 36% 29.99 in 10.0 mi South 6.9 mph - N/A   Overcast
2:55 AM 50.9 °F 23.7 °F 35% 29.99 in 10.0 mi South 8.1 mph - N/A   Overcast
3:16 AM 50.9 °F 24.1 °F 35% 29.98 in 10.0 mi SSE 5.8 mph - N/A Rain Light Rain
3:35 AM 51.1 °F 24.3 °F 35% 29.97 in 10.0 mi SE 4.6 mph - N/A   Overcast
3:55 AM 51.3 °F 23.9 °F 34% 29.97 in 10.0 mi SE 5.8 mph - N/A   Overcast
4:15 AM 51.4 °F 24.6 °F 35% 29.96 in 10.0 mi SE 6.9 mph - N/A   Overcast
4:35 AM 51.4 °F 25.5 °F 37% 29.95 in 10.0 mi SE 5.8 mph - N/A   Overcast
4:56 AM 51.4 °F 27.0 °F 39% 29.96 in 10.0 mi South 5.8 mph - N/A   Overcast
5:15 AM 51.8 °F 27.3 °F 39% 29.95 in 10.0 mi SSE 6.9 mph - N/A   Overcast
5:35 AM 51.4 °F 28.9 °F 42% 29.94 in 10.0 mi SSE 6.9 mph - N/A   Overcast
5:56 AM 51.8 °F 29.8 °F 43% 29.93 in 10.0 mi South 5.8 mph - N/A   Overcast
6:15 AM 51.4 °F 30.2 °F 44% 29.92 in 10.0 mi South 4.6 mph - N/A   Mostly Cloudy
6:35 AM 50.9 °F 31.3 °F 47% 29.92 in 10.0 mi SE 5.8 mph - N/A   Scattered Clouds
6:55 AM 50.9 °F 31.8 °F 48% 29.91 in 10.0 mi SSE 5.8 mph - N/A   Clear
7:15 AM 51.4 °F 32.0 °F 47% 29.89 in 10.0 mi SSE 8.1 mph - N/A   Clear
7:35 AM 52.5 °F 33.3 °F 48% 29.88 in 10.0 mi South 10.4 mph - N/A   Clear
7:55 AM 53.6 °F 33.3 °F 46% 29.88 in 10.0 mi South 10.4 mph 18.4 mph N/A   Clear
8:16 AM 55.4 °F 35.1 °F 46% 29.86 in 10.0 mi South 12.7 mph 16.1 mph N/A   Scattered Clouds
8:35 AM 59.0 °F 34.5 °F 40% 29.84 in 10.0 mi South 13.8 mph 27.6 mph N/A   Scattered Clouds
8:55 AM 59.7 °F 36.3 °F 42% 29.84 in 10.0 mi South 13.8 mph 26.5 mph N/A   Scattered Clouds
9:15 AM 59.2 °F 36.9 °F 43% 29.83 in 10.0 mi South 12.7 mph 21.9 mph N/A   Mostly Cloudy
9:35 AM 61.0 °F 38.1 °F 43% 29.83 in 10.0 mi South 13.8 mph 24.2 mph N/A   Mostly Cloudy
9:55 AM 62.8 °F 39.4 °F 42% 29.82 in 10.0 mi South 13.8 mph 19.6 mph N/A   Scattered Clouds
10:16 AM 64.8 °F 40.6 °F 41% 29.81 in 10.0 mi South 12.7 mph 19.6 mph N/A   Clear
10:35 AM 65.8 °F 41.2 °F 41% 29.80 in 10.0 mi South 17.3 mph 21.9 mph N/A   Clear
10:55 AM 67.3 °F 42.8 °F 41% 29.79 in 10.0 mi SSW 10.4 mph - N/A   Clear
11:15 AM 68.4 °F 43.9 °F 41% 29.79 in 10.0 mi South 12.7 mph 18.4 mph N/A   Clear
11:36 AM 70.2 °F 45.3 °F 41% 29.78 in 10.0 mi South 12.7 mph 19.6 mph N/A   Clear
11:55 AM 70.7 °F 46.4 °F 42% 29.78 in 10.0 mi SW 18.4 mph 26.5 mph N/A   Clear
12:15 PM 70.9 °F 47.3 °F 43% 29.79 in 10.0 mi SW 13.8 mph 24.2 mph N/A   Clear
12:36 PM 70.9 °F 47.1 °F 43% 29.80 in 10.0 mi SW 18.4 mph 24.2 mph N/A   Clear
12:55 PM 71.6 °F 46.8 °F 41% 29.80 in 10.0 mi SW 15.0 mph 24.2 mph N/A   Clear
1:15 PM 71.6 °F 46.8 °F 41% 29.81 in 10.0 mi SW 16.1 mph 23.0 mph N/A   Clear
1:35 PM 71.2 °F 46.9 °F 42% 29.79 in 10.0 mi WSW 13.8 mph 20.7 mph N/A   Clear
1:55 PM 71.8 °F 47.7 °F 42% 29.79 in 10.0 mi WSW 15.0 mph 21.9 mph N/A   Clear
2:16 PM 72.5 °F 48.4 °F 42% 29.79 in 10.0 mi WSW 12.7 mph 18.4 mph N/A   Clear
2:35 PM 72.5 °F 48.2 °F 42% 29.78 in 10.0 mi SW 13.8 mph 19.6 mph N/A   Clear
2:55 PM 72.9 °F 49.1 °F 43% 29.78 in 10.0 mi WSW 12.7 mph 20.7 mph N/A   Clear
3:15 PM 73.2 °F 49.6 °F 43% 29.78 in 10.0 mi West 12.7 mph 18.4 mph N/A   Clear
3:35 PM 73.6 °F 50.0 °F 43% 29.79 in 10.0 mi West 10.4 mph 17.3 mph N/A   Clear
3:55 PM 73.6 °F 50.5 °F 44% 29.79 in 10.0 mi West 9.2 mph - N/A   Clear
4:15 PM 72.7 °F 50.0 °F 45% 29.78 in 10.0 mi West 9.2 mph - N/A   Clear
4:35 PM 73.4 °F 50.2 °F 44% 29.79 in 10.0 mi West 8.1 mph - N/A   Clear
4:55 PM 73.4 °F 50.7 °F 45% 29.79 in 10.0 mi NW 6.9 mph - N/A   Clear
5:15 PM 73.2 °F 49.8 °F 44% 29.80 in 10.0 mi NNW 5.8 mph - N/A   Clear
5:36 PM 71.8 °F 49.3 °F 45% 29.79 in 10.0 mi North 4.6 mph - N/A   Clear
5:55 PM 70.9 °F 49.6 °F 47% 29.79 in 10.0 mi Calm Calm - N/A   Clear
6:15 PM 69.6 °F 50.5 °F 51% 29.72 in 10.0 mi South 5.8 mph - N/A   Scattered Clouds
6:35 PM 69.8 °F 50.0 °F 49% 29.69 in 10.0 mi SE 6.9 mph - N/A   Clear
6:55 PM 71.8 °F 50.5 °F 47% 29.71 in 10.0 mi Calm Calm - N/A   Clear
7:15 PM 72.7 °F 51.4 °F 47% 29.72 in 10.0 mi NNE 5.8 mph - N/A   Clear
7:35 PM 72.0 °F 52.3 °F 50% 29.73 in 10.0 mi Calm Calm - N/A   Clear
7:55 PM 71.6 °F 53.2 °F 52% 29.74 in 10.0 mi Calm Calm - N/A   Clear
8:15 PM 71.2 °F 54.3 °F 55% 29.72 in 10.0 mi Calm Calm - N/A   Clear
8:35 PM 68.9 °F 54.3 °F 60% 29.72 in 10.0 mi Calm Calm - N/A   Clear
8:55 PM 68.5 °F 53.6 °F 59% 29.70 in 10.0 mi ESE 3.5 mph - N/A   Clear
9:15 PM 66.6 °F 54.0 °F 64% 29.70 in 10.0 mi Calm Calm - N/A   Clear
9:35 PM 68.0 °F 54.0 °F 61% 29.72 in 10.0 mi Calm Calm - N/A   Clear
9:55 PM 70.0 °F 52.9 °F 55% 29.67 in 10.0 mi South 15.0 mph - N/A   Scattered Clouds
10:16 PM 73.4 °F 49.6 °F 43% 29.67 in 10.0 mi South 10.4 mph 18.4 mph N/A   Scattered Clouds
10:35 PM 72.0 °F 49.8 °F 46% 29.68 in 10.0 mi South 4.6 mph - N/A   Clear
10:55 PM 72.0 °F 48.4 °F 43% 29.68 in 10.0 mi South 4.6 mph - N/A   Clear
11:15 PM 72.1 °F 48.9 °F 44% 29.69 in 10.0 mi South 4.6 mph - N/A   Clear
11:35 PM 73.6 °F 48.6 °F 41% 29.68 in 10.0 mi South 10.4 mph - N/A   Clear
11:55 PM 75.0 °F 49.6 °F 41% 29.67 in 10.0 mi SSW 12.7 mph - N/A   Clear